Retour au catalogue

STARLINK-3272

ActifCommunicationsVLEO
NORAD 50187·PAYLOAD·🇺🇸 United States

Lancé Dec 18, 2021 depuis Vandenberg Space Force Base

Loading…

Prochains Passages (prochaines 24 heures)

TLE

FraisSource: CelesTrak SupGP

Époque: Sep 14, 2026, 20:55 UTC

1 50187C 21125AH  26257.87201389 -.00005895  00000+0 -31478-3 0  2573
2 50187  53.2137 106.0968 0002578 116.7860 246.8956 15.14618034    19

Suivez STARLINK-3272 en temps réel avec AllMySat

Download on the App Store